Dewpoint
69 70 70 71 71 71 71 71 70 70 70 70 69 68 68 68 68 68 67 68 67 66 67 67 66 64 66 65 67 67 68 68 67 67 68 68 67 67 67 68 68 69 70 69 70 70 70 70 70 70 71 71 71 69 67 66 65 64 62 65 66 69
69 70 71 71 71 71 70 70 69 70 69 69 68 69 68 67 69 68 68 68 68 68 67 65 66 67 66 66 66 67 67 67 66 67 68 68 68 68 69 69 70 70 69 70 71 70 68 70 71 71 71 71 70 68 67 66 68 63 65 66 69 71
67 69 71 70 70 71 69 69 69 68 68 69 68 68 67 66 66 66 67 68 70 70 68 67 68 65 68 68 67 68 66 67 68 67 69 68 69 69 69 70 70 71 71 71 70 68 65 63 66 70 71 71 69 68 69 70 69 65 66 68 69 71
67 71 70 69 70 70 69 69 69 68 67 67 67 65 66 66 63 64 66 69 70 70 70 71 67 67 66 65 67 67 67 68 68 69 68 70 69 70 70 71 71 71 71 69 66 63 61 62 64 66 67 67 67 70 69 71 71 67 67 68 69 71
69 71 71 70 69 69 69 69 68 67 66 65 65 67 66 66 67 64 67 71 70 71 69 71 71 69 66 66 65 67 68 68 67 67 70 68 67 64 69 67 66 68 67 64 61 61 63 63 66 66 66 68 67 68 69 70 70 67 67 68 68 69
70 71 71 69 69 68 69 68 68 67 66 65 66 66 65 66 67 72 70 70 71 71 70 69 69 70 70 71 66 66 65 67 66 65 67 66 70 71 68 67 67 66 65 71 67 69 66 69 67 71 66 66 66 67 68 69 67 66 67 66 66 68
70 70 70 70 70 69 68 68 67 67 66 65 65 65 67 70 70 71 72 70 71 70 72 71 71 71 71 72 71 72 72 72 71 71 72 71 70 71 72 71 70 70 68 66 65 65 69 68 68 64 67 66 65 66 67 68 66 66 65 65 66 66
68 68 70 70 70 68 68 67 68 67 66 66 67 66 68 69 70 70 71 73 72 72 72 71 71 70 70 71 69 69 70 70 71 70 71 70 68 71 71 70 69 67 68 65 63 64 67 66 68 67 64 65 62 65 66 66 64 65 65 64 64 65
65 67 68 70 69 68 67 68 68 68 67 67 67 67 70 68 70 69 71 71 71 71 71 71 70 69 70 70 70 69 70 70 69 70 70 69 70 71 71 71 70 68 67 67 67 67 64 63 64 66 62 62 63 62 63 65 63 64 64 64 63 64
65 66 68 68 67 67 68 68 68 67 71 66 71 67 69 71 71 70 70 70 73 71 69 69 69 70 70 69 70 70 70 68 69 70 70 69 70 70 71 72 69 70 69 67 66 66 68 66 59 61 60 61 64 64 63 64 62 63 64 63 63 63
67 69 68 66 68 68 68 68 68 68 68 66 71 71 68 69 68 70 69 71 70 71 70 70 70 69 70 69 69 68 67 69 69 68 69 69 70 70 71 71 68 67 65 65 65 67 64 65 62 59 60 57 60 61 61 62 60 63 63 63 61 60
67 70 69 68 68 68 68 68 69 68 67 67 70 70 68 69 71 70 70 71 73 71 70 70 69 69 69 69 69 69 69 69 69 69 69 68 71 69 69 67 67 66 69 70 70 68 69 65 61 59 57 57 59 58 59 59 58 58 63 62 60 59
67 69 69 69 69 68 69 68 68 68 67 68 69 69 69 70 71 70 71 71 70 71 72 71 70 69 69 69 69 69 69 69 68 67 68 68 67 68 67 69 70 67 70 69 67 67 66 67 61 60 59 57 56 56 57 57 58 58 57 60 61 59
68 68 69 70 70 68 69 68 68 68 68 68 69 69 69 70 71 70 70 70 70 70 71 71 69 69 69 69 69 68 69 69 69 68 68 68 69 67 67 67 67 68 68 66 65 65 65 66 62 60 58 57 58 58 56 55 58 57 57 56 57 58
69 69 69 70 69 69 70 68 66 66 68 69 69 69 71 70 71 69 67 70 70 71 70 69 69 69 69 69 67 68 68 69 68 69 68 68 68 66 68 67 67 67 68 69 64 66 62 61 60 58 59 59 57 56 56 54 53 52 54 55 53 52
69 69 69 69 69 69 69 70 67 66 69 70 69 68 70 70 68 69 68 69 69 70 70 69 69 69 70 70 68 68 69 68 68 68 68 66 66 67 67 68 66 66 67 65 63 64 62 61 59 58 58 57 56 55 54 53 53 50 49 50 49 50
68 69 69 69 69 70 70 68 68 68 68 69 69 69 69 71 70 68 69 69 70 70 69 69 69 68 69 69 69 68 69 69 69 68 67 68 67 65 66 66 67 65 64 65 63 61 62 61 59 58 57 56 55 56 54 53 52 51 53 48 48 44
68 68 69 69 69 69 69 68 69 67 69 67 69 69 69 70 68 69 69 70 69 70 70 68 68 68 70 69 69 69 69 69 69 71 68 68 68 68 66 66 66 66 64 64 63 62 60 59 58 57 55 54 55 54 53 54 52 54 50 48 48 46
68 69 69 69 69 69 69 69 68 68 67 68 69 69 70 70 68 69 69 69 69 70 69 68 67 68 68 69 68 69 69 68 69 71 68 65 66 66 67 66 66 65 66 63 62 64 62 60 56 56 54 55 54 53 53 53 53 50 50 51 49 48
68 68 69 69 68 67 67 66 65 66 66 66 67 68 70 69 70 68 68 69 68 69 68 69 68 67 68 68 68 69 69 66 66 67 65 65 63 65 64 64 63 63 65 61 64 63 58 56 56 56 56 55 56 55 53 53 52 50 51 47 47 48
68 68 68 68 67 66 65 65 66 65 66 67 65 67 68 69 68 68 68 68 68 69 69 67 67 67 67 67 67 66 66 67 66 64 66 66 63 63 64 64 64 63 62 61 63 62 58 57 57 56 56 55 54 55 56 53 51 49 46 47 47 48
67 67 68 68 68 68 67 65 65 64 65 65 65 65 67 68 68 68 68 68 68 68 68 66 66 65 66 65 66 66 66 65 64 66 68 65 65 64 63 62 64 62 64 65 62 62 60 58 56 54 54 54 54 53 54 52 50 48 48 46 48 50
67 67 67 67 67 67 68 68 66 66 65 64 65 67 67 66 67 67 68 67 67 68 66 63 64 65 64 64 65 65 65 65 64 65 64 64 63 64 63 64 62 60 58 60 62 62 63 63 57 56 56 53 51 50 52 50 50 48 47 47 46 45
67 67 67 67 66 67 67 68 68 67 67 66 65 66 66 66 66 65 65 65 65 65 64 64 63 63 62 63 65 66 65 64 64 64 63 65 63 62 63 64 64 62 59 57 56 57 60 60 60 58 53 54 53 52 46 47 47 47 45 44 45 47
67 67 67 67 67 67 67 67 67 68 67 66 66 65 64 64 65 65 64 64 64 64 63 65 66 62 61 63 62 64 64 62 62 64 64 63 62 62 64 62 61 64 59 61 55 57 57 58 56 56 55 55 55 54 53 44 42 46 45 43 44 47
67 67 66 67 67 67 65 66 66 65 64 64 63 63 63 63 63 62 61 64 62 62 62 64 65 62 59 61 61 62 63 60 62 63 66 61 63 64 62 61 59 60 60 57 54 53 52 55 56 54 54 57 56 54 51 42 44 45 48 47 46 41
66 66 66 66 66 66 65 66 65 64 64 64 63 63 65 64 63 62 63 63 62 64 61 63 65 63 60 63 61 62 62 61 59 61 61 62 61 61 58 57 58 58 57 60 60 50 51 49 52 53 54 52 53 57 54 51 49 40 40 45 44 43
66 66 65 65 65 66 66 66 66 64 64 64 63 63 64 64 64 63 62 61 61 63 62 63 63 62 60 59 60 61 61 61 59 57 58 59 58 58 56 56 57 58 57 56 56 55 51 51 49 49 53 53 53 52 51 53 51 52 46 40 42 44
66 66 66 65 65 66 66 66 66 64 64 64 64 64 64 63 63 63 62 62 61 59 62 63 60 61 58 57 61 59 59 58 59 56 54 56 56 53 55 56 56 55 55 55 55 55 54 53 52 52 55 49 49 48 49 49 49 52 46 47 40 40
66 66 66 65 66 66 66 66 65 65 64 64 64 63 62 62 62 62 61 61 62 63 60 62 63 57 62 56 57 58 55 55 57 52 52 52 53 53 54 53 54 55 54 54 54 53 53 53 52 51 51 52 53 53 50 47 46 43 47 45 44 39
66 66 66 66 66 66 66 66 65 65 65 64 63 63 62 61 61 61 60 60 62 62 60 61 61 61 59 57 57 56 55 52 55 57 52 48 52 50 52 53 52 53 53 53 53 52 51 51 50 50 48 48 48 48 47 46 45 46 45 45 44 42
66 66 66 66 66 66 65 65 66 66 65 64 63 62 61 60 60 60 60 60 61 61 61 60 60 62 60 59 57 58 57 55 55 54 51 51 52 50 50 51 52 53 53 53 53 52 52 50 50 49 49 49 47 47 47 46 47 48 45 45 44 42
65 65 66 66 66 66 65 65 66 66 65 64 63 62 61 61 61 60 60 60 60 59 60 59 60 58 60 61 57 57 58 56 55 54 52 51 52 51 52 51 50 50 51 51 51 51 50 50 50 49 49 48 47 46 46 47 47 46 46 47 44 42
65 65 65 66 66 66 66 66 67 66 65 64 63 62 62 61 61 61 60 60 59 59 59 59 59 58 57 56 55 57 56 55 53 53 52 52 51 49 50 46 49 49 50 51 51 51 50 50 49 49 48 46 46 46 47 47 46 45 44 44 42 40
65 65 65 66 65 65 65 66 66 65 65 63 63 62 62 62 61 61 60 60 60 60 59 58 57 59 57 57 56 55 54 54 53 52 52 51 49 49 50 47 48 50 50 50 50 50 49 49 48 48 48 48 48 47 48 46 46 46 44 44 43 43
65 65 65 65 65 65 65 65 66 65 64 64 63 63 62 62 62 61 60 60 60 60 59 59 59 57 57 57 55 53 52 51 51 51 51 49 49 48 50 49 48 48 46 48 48 48 48 48 49 48 48 47 46 46 46 45 45 47 46 45 44 44
65 65 65 65 65 65 65 65 65 65 65 65 63 63 62 62 62 61 61 60 60 60 59 59 59 56 57 56 55 53 51 51 52 51 51 49 48 48 49 48 48 48 48 49 48 47 48 47 48 48 48 48 47 46 45 46 46 47 46 47 46 44